Vertical_Velocity
-1 2 -0 -4 -6 -6 -4 -7 -2 -5 -2 -3 -3 -10 -5 -3 -7 -7 -6 -5 -5 -2 -4 -1 -3 -1 -0 -0 -0 0 -1 -0 4 2 -1 1 4 0 1 5 7 14 18 8
-1 0 -2 -1 -1 -2 -2 -1 -3 -5 -9 -4 -5 -6 -5 -4 -4 -0 2 0 -0 -5 -6 -3 -1 1 -1 -1 -2 -0 0 -1 3 2 0 0 1 2 5 8 2 12 8 -6
-0 -1 -2 -2 -4 -3 -3 -4 -4 -4 -3 -5 -4 -2 -3 -2 -2 -3 -4 -1 2 3 -0 -2 -0 -0 -1 -1 0 0 1 1 -0 0 3 -0 4 1 5 9 12 7 0 2
-1 -3 -2 -2 -5 -4 -5 -7 -4 -1 -2 -4 -3 -5 -5 -3 1 -2 -3 -6 -0 -1 2 1 1 -2 2 -0 -1 -0 1 0 -1 1 1 0 0 3 2 1 8 15 7 7
-0 -1 -0 1 1 -2 -5 -5 -3 -3 -2 -2 -1 -3 -3 3 -1 3 1 0 -3 1 -1 -2 0 -2 -1 3 -1 0 0 3 2 -1 0 -1 -3 -1 5 -4 5 3 5 2
-2 -1 -3 -3 -2 -3 -9 -0 4 -2 -1 -3 -5 -1 -1 -2 -2 -0 -2 -1 1 0 1 0 0 0 -1 0 0 1 -0 -0 1 1 0 1 1 -3 -1 -0 1 8 10 1
-2 -0 -1 -0 -1 -0 -1 -1 -3 -3 -4 -4 -4 -6 -2 2 -3 -2 5 3 -0 -0 -1 0 0 -0 2 1 0 1 -1 -0 -0 -1 1 -1 2 1 -1 -3 -5 -1 -7 -2
-1 0 -0 -0 -2 -3 -4 -2 -3 -4 -4 -3 -0 -1 -2 -11 -16 -9 -0 2 5 6 2 2 1 0 2 0 1 1 0 -0 0 0 -1 2 0 3 0 1 -2 -2 1 1
-2 -2 -2 -1 -1 -3 -2 -4 -3 -3 -2 -3 -1 -2 2 4 9 1 -4 -3 -2 -3 -1 -1 1 2 -1 1 1 1 -0 0 -1 -1 0 -2 0 -1 3 7 5 4 2 1
-3 -1 -2 -2 -3 -3 -2 -0 -3 -4 -4 -1 -2 -1 -4 -2 1 2 6 5 5 4 1 -0 1 1 -0 1 0 -0 0 1 -0 -0 -0 -0 -1 -2 1 -1 4 2 -0 -3
-2 -1 -1 -2 -4 -4 -2 -1 -4 -4 -2 -1 -3 -0 -0 -2 -1 -4 1 4 4 -3 -0 0 -2 0 0 -0 0 0 -0 0 -0 -0 -0 -1 -0 -1 -0 -3 -0 -0 -0 0
-0 -1 -2 -2 -2 -2 -2 -5 -3 -3 -2 -5 -0 -2 -2 -2 -3 -3 -5 -5 -6 -3 -5 -1 -0 -1 -1 0 0 -1 -1 -0 0 0 -1 -2 -1 -0 -0 -2 -3 -3 -2 0
0 -2 -2 -3 -3 -3 -2 -4 -3 -3 -2 -1 -2 -3 -0 -2 -1 -1 -4 -4 -2 -2 -1 -1 -1 -1 -1 -1 -0 -1 -0 0 -0 1 1 1 -0 -1 -1 -0 -0 -2 -3 -5
-1 -2 -2 -2 -1 -2 -2 -2 -4 -3 -2 -4 -4 -1 -1 1 -2 -2 -4 -5 -6 -3 -3 -1 -1 -0 -1 -0 -2 -1 -1 -1 -1 0 -1 -1 -0 0 1 1 -1 -1 0 -1
-0 -1 -1 -1 -1 -2 -3 -4 -4 -1 -4 -5 -3 3 -3 -1 -2 -2 -4 -3 -3 -3 -3 -1 -0 0 -1 -1 -0 -0 -1 -0 -2 -2 -0 1 -1 -3 -1 -0 -1 -1 -0 -1
-0 -3 -2 -1 0 -0 -0 3 2 1 1 1 -2 3 -4 -1 -3 -4 -4 -2 -4 0 1 -2 -1 -2 -1 -1 0 -0 -0 -0 -1 -3 -3 -1 1 1 -1 -2 -2 -1 -2 -0
-1 -2 -1 -2 -2 -3 -2 -4 -4 -1 -3 0 1 -3 -3 -4 -1 -3 -3 -1 2 -3 0 -2 -1 0 -0 -1 -0 1 0 -0 -0 -1 -1 -1 -2 -2 -2 -0 -1 -1 -1 -3
-1 -3 -2 -1 -1 -3 -1 0 -2 -3 1 -3 -6 0 3 -1 0 0 -1 1 -1 -1 -1 -3 -2 -3 -2 -0 -0 -1 -1 -0 0 -0 -1 -1 -1 -1 -1 -1 -1 -1 -1 -0
-2 -2 -1 -0 -1 -3 3 0 0 -1 0 2 0 -5 -8 -3 -0 0 1 3 -0 1 3 -3 0 0 -1 -1 -0 0 0 -0 -0 1 -0 -1 -0 -0 -1 -2 -0 -1 0 1
-3 -1 1 0 2 1 0 0 4 4 4 -0 1 2 -3 2 3 0 -2 4 0 -1 -1 -2 0 -1 -1 -0 2 1 1 0 -0 -1 0 0 1 0 -2 -1 -1 -0 -1 -0
-1 0 -2 -2 -2 1 1 -6 -5 -4 -4 -2 -3 -3 -4 2 -1 -0 2 4 -2 -3 -1 -3 -1 0 2 1 0 0 1 1 0 0 1 -0 -0 -1 -0 -0 -0 -0 -1 -1
-4 -1 -1 -2 -3 -6 -7 -2 -2 -8 -6 -5 -2 -0 -5 -2 -0 -3 -6 1 -8 -7 -1 1 -2 -2 -1 1 0 1 1 -0 -0 0 -1 0 0 1 -0 -1 -1 -1 0 0
-0 -1 -3 0 2 -1 -5 -6 -0 -3 1 1 -1 -2 -5 -1 -3 -0 -2 -5 1 2 2 1 -2 -1 -2 -1 2 -0 -0 1 1 -0 0 -1 -1 -2 1 1 0 0 0 0
-4 -2 -2 4 -3 -7 -4 -2 -2 -1 0 1 2 2 -3 0 -1 0 -2 -5 -13 -10 -1 3 -0 0 2 1 0 2 0 -1 0 1 -0 -0 0 -0 -2 -1 -0 0 -1 -1
-4 -5 -4 -1 -0 -1 -1 -0 -0 0 0 0 0 3 6 2 -2 -4 -1 -7 1 6 1 2 2 2 1 1 1 0 -0 0 -1 -0 -0 -0 -0 -1 -1 -0 -0 -0 0 -0
2 2 6 4 1 0 1 0 1 -1 -2 -1 -0 -1 -6 -1 -1 -1 -1 3 -1 -2 -1 2 2 2 1 0 1 0 0 -1 -0 -1 -1 -0 -0 -1 -0 -1 -0 -1 -0 -1
-1 -2 -1 -2 -2 -2 -0 1 0 -1 -2 -1 -0 -4 -3 1 -3 0 -3 -2 -0 2 1 2 2 1 3 2 -0 -0 -1 -0 -0 -0 -0 -0 -1 -0 -0 -1 -1 -0 -1 -0
Height
5718 5707 5694 5681 5667 5651 5635 5619 5605 5589 5577 5567 5556 5543 5531 5521 5510 5499 5489 5479 5469 5461 5452 5445 5436 5429 5421 5415 5410 5409 5410 5413 5416 5420 5424 5431 5439 5449 5459 5470 5478 5486 5492 5499
5715 5704 5692 5678 5664 5648 5633 5618 5603 5588 5575 5565 5553 5542 5531 5521 5511 5501 5491 5480 5470 5460 5451 5444 5436 5429 5422 5415 5410 5408 5408 5411 5413 5416 5420 5423 5430 5440 5450 5458 5468 5474 5486 5491
5713 5701 5689 5676 5662 5646 5632 5617 5602 5588 5575 5562 5552 5541 5531 5521 5511 5501 5490 5481 5471 5460 5452 5444 5436 5429 5422 5415 5411 5408 5407 5408 5411 5414 5416 5419 5426 5431 5439 5447 5457 5464 5475 5485
5709 5698 5686 5673 5659 5644 5631 5615 5600 5586 5574 5562 5552 5542 5531 5520 5511 5499 5488 5477 5468 5460 5452 5444 5436 5428 5423 5417 5411 5408 5407 5407 5409 5411 5413 5415 5419 5424 5430 5438 5445 5453 5465 5474
5707 5696 5684 5671 5657 5643 5629 5613 5599 5584 5572 5561 5550 5540 5531 5521 5510 5500 5489 5478 5467 5458 5449 5442 5435 5428 5422 5417 5412 5409 5407 5407 5408 5409 5410 5412 5415 5420 5424 5431 5436 5443 5452 5463
5705 5694 5681 5669 5655 5641 5627 5614 5599 5584 5572 5561 5552 5543 5532 5521 5510 5499 5487 5475 5465 5454 5447 5439 5433 5428 5422 5417 5413 5409 5407 5406 5406 5408 5409 5410 5414 5417 5420 5424 5430 5436 5443 5451
5704 5692 5680 5667 5654 5641 5627 5612 5598 5584 5572 5560 5551 5541 5530 5520 5508 5498 5487 5474 5461 5451 5442 5436 5431 5426 5422 5417 5413 5410 5407 5405 5405 5405 5407 5410 5410 5412 5416 5420 5424 5428 5435 5442
5702 5690 5678 5665 5653 5640 5626 5611 5597 5583 5571 5559 5549 5538 5527 5517 5507 5497 5485 5472 5461 5449 5440 5433 5428 5424 5421 5417 5413 5410 5407 5406 5405 5404 5404 5408 5409 5410 5413 5416 5421 5425 5429 5435
5700 5688 5676 5664 5652 5639 5625 5611 5597 5584 5571 5559 5549 5540 5531 5522 5511 5498 5484 5470 5457 5444 5435 5429 5424 5421 5418 5416 5413 5410 5407 5405 5404 5403 5402 5403 5406 5408 5410 5412 5417 5419 5423 5427
5698 5686 5675 5662 5650 5637 5624 5610 5597 5583 5571 5559 5549 5540 5530 5519 5508 5497 5485 5471 5458 5444 5433 5425 5421 5418 5416 5414 5412 5410 5407 5405 5403 5401 5401 5400 5401 5404 5407 5411 5417 5417 5421 5424
5695 5684 5672 5659 5648 5635 5623 5609 5595 5583 5570 5559 5548 5539 5528 5518 5507 5495 5483 5472 5457 5443 5432 5423 5419 5415 5414 5412 5410 5409 5407 5405 5403 5402 5401 5401 5399 5401 5404 5407 5408 5411 5414 5418
5693 5682 5670 5658 5647 5634 5622 5609 5596 5582 5570 5559 5549 5538 5528 5518 5506 5494 5482 5469 5455 5442 5430 5422 5417 5414 5412 5410 5409 5407 5407 5405 5404 5403 5401 5400 5399 5398 5399 5401 5404 5406 5409 5412
5690 5680 5668 5657 5645 5633 5622 5609 5596 5583 5570 5559 5547 5537 5527 5516 5506 5495 5483 5470 5457 5444 5432 5424 5418 5414 5411 5408 5407 5405 5404 5402 5401 5401 5400 5399 5398 5397 5397 5398 5399 5400 5403 5406
5688 5678 5666 5655 5644 5632 5621 5608 5595 5582 5569 5559 5549 5538 5527 5517 5506 5495 5483 5471 5458 5446 5433 5424 5418 5414 5410 5408 5406 5403 5402 5400 5398 5397 5396 5395 5395 5395 5395 5395 5396 5396 5397 5399
5686 5676 5665 5654 5643 5631 5620 5608 5594 5581 5570 5559 5548 5539 5528 5517 5507 5496 5484 5472 5460 5447 5435 5426 5419 5413 5409 5406 5403 5401 5398 5396 5395 5393 5392 5391 5390 5390 5390 5391 5391 5392 5393 5394
5684 5674 5664 5653 5642 5631 5620 5608 5595 5581 5569 5559 5549 5538 5528 5517 5507 5496 5485 5474 5462 5450 5439 5427 5419 5413 5408 5403 5400 5397 5393 5391 5388 5387 5386 5386 5385 5384 5384 5385 5385 5386 5387 5388
5682 5672 5662 5651 5640 5630 5620 5607 5594 5581 5570 5559 5548 5538 5526 5517 5507 5496 5486 5475 5464 5452 5441 5430 5421 5413 5408 5401 5396 5392 5389 5385 5383 5380 5378 5378 5378 5378 5378 5378 5379 5379 5379 5380
5679 5670 5659 5650 5639 5628 5618 5605 5592 5580 5569 5557 5546 5537 5527 5516 5507 5497 5487 5477 5465 5454 5442 5431 5421 5412 5405 5399 5394 5389 5385 5381 5378 5375 5373 5372 5371 5370 5370 5371 5371 5372 5372 5372
5677 5668 5657 5647 5638 5627 5618 5604 5592 5580 5570 5557 5546 5534 5525 5516 5508 5498 5488 5477 5466 5455 5444 5432 5423 5413 5405 5397 5391 5386 5382 5378 5374 5371 5368 5367 5365 5364 5363 5363 5363 5364 5364 5365
5675 5665 5655 5645 5636 5626 5616 5603 5593 5581 5569 5557 5546 5535 5526 5517 5506 5497 5488 5477 5466 5454 5445 5433 5423 5413 5403 5396 5389 5383 5378 5374 5370 5367 5364 5361 5360 5358 5356 5356 5356 5356 5355 5355
5672 5662 5652 5642 5633 5623 5612 5600 5589 5578 5567 5555 5545 5535 5525 5515 5507 5498 5488 5477 5465 5454 5445 5433 5422 5412 5402 5393 5386 5379 5373 5370 5366 5362 5359 5356 5354 5352 5350 5348 5348 5347 5346 5345
5668 5659 5648 5639 5629 5618 5607 5597 5586 5574 5564 5553 5542 5533 5523 5514 5504 5495 5484 5475 5462 5451 5441 5431 5420 5409 5399 5390 5382 5376 5370 5365 5361 5358 5354 5351 5348 5346 5343 5341 5339 5337 5336 5335
5664 5655 5645 5635 5626 5615 5604 5594 5584 5573 5562 5551 5540 5530 5521 5511 5501 5493 5482 5471 5462 5452 5441 5430 5418 5406 5394 5385 5378 5371 5365 5361 5356 5352 5349 5345 5342 5339 5336 5334 5331 5329 5327 5324
5660 5651 5641 5631 5621 5611 5602 5592 5581 5571 5560 5548 5537 5527 5518 5508 5499 5488 5477 5468 5456 5446 5436 5426 5413 5401 5391 5381 5372 5366 5360 5354 5350 5346 5342 5339 5335 5331 5327 5325 5322 5320 5317 5315
5656 5647 5637 5628 5618 5609 5598 5588 5578 5568 5557 5546 5536 5526 5516 5505 5495 5485 5474 5463 5454 5444 5433 5422 5410 5398 5386 5376 5367 5360 5355 5348 5343 5340 5336 5332 5328 5324 5320 5317 5313 5310 5307 5304
5653 5644 5635 5625 5615 5605 5595 5585 5575 5564 5553 5543 5532 5522 5510 5501 5491 5482 5472 5463 5452 5440 5430 5419 5406 5394 5382 5371 5362 5355 5349 5343 5339 5335 5331 5326 5321 5317 5312 5308 5304 5301 5298 5294
5647 5639 5630 5620 5610 5601 5590 5580 5571 5560 5549 5538 5526 5516 5505 5496 5486 5478 5469 5459 5449 5438 5426 5414 5402 5390 5378 5368 5358 5351 5345 5340 5335 5330 5324 5319 5313 5309 5304 5299 5295 5292 5289 5286